When you browse on this site, cookies collect data to enhance your experience and personalize the content and advertising you see.
Visit our Privacy Policy to learn more. By continuing to use the site, you agree to this use of cookies and data.
  • En España
  • Lista de países
  • Para 7 días
  • Temperatura del agua
  • El tiempo en el mapa
  • Informadores
  • user-avatar
    Iniciar sesión

    Tiempo cada hora Salta

    Hoy, 8 Diciembre, Domingo

    Tiempo Temperatura Precipitaciones Viento Presión Humedad
    00:00 +20°C° 0 mm 1 mps 649 mmHg 84%
    01:00 +18°C° 0 mm 0 mps 649 mmHg 84%
    02:00 +17°C° 0 mm 0 mps 649 mmHg 85%
    03:00 +17°C° 0 mm 0 mps 649 mmHg 85%
    04:00 +16°C° 0 mm 0 mps 648 mmHg 86%
    05:00 +16°C° 0 mm 0 mps 648 mmHg 86%
    06:00 +18°C° 0 mm 0 mps 649 mmHg 80%
    07:00 +21°C° 0 mm 1 mps 650 mmHg 74%
    08:00 +23°C° 0 mm 1 mps 651 mmHg 68%
    09:00 +24°C° 0 mm 1 mps 651 mmHg 64%
    10:00 +26°C° 0 mm 1 mps 651 mmHg 60%
    11:00 +27°C° 0 mm 2 mps 651 mmHg 57%
    12:00 +26°C° 0.9 mm 2 mps 651 mmHg 60%
    13:00 +26°C° 0.9 mm 2 mps 650 mmHg 64%
    14:00 +25°C° 0.9 mm 2 mps 649 mmHg 67%
    15:00 +25°C° 1.3 mm 2 mps 649 mmHg 70%
    16:00 +24°C° 1.3 mm 2 mps 648 mmHg 74%
    17:00 +23°C° 1.3 mm 2 mps 648 mmHg 77%
    18:00 +22°C° 0.7 mm 1 mps 649 mmHg 81%
    19:00 +21°C° 0.7 mm 1 mps 649 mmHg 85%
    20:00 +21°C° 0.7 mm 1 mps 650 mmHg 89%
    21:00 +20°C° 0.6 mm 1 mps 650 mmHg 89%
    22:00 +20°C° 0.6 mm 1 mps 651 mmHg 89%
    23:00 +20°C° 0.6 mm 1 mps 651 mmHg 89%

    Mañana, 9 Diciembre, Lunes

    Tiempo Temperatura Precipitaciones Viento Presión Humedad
    00:00 +19°C° 1 mm 1 mps 651 mmHg 89%
    01:00 +17°C° 1 mm 0 mps 650 mmHg 89%
    02:00 +17°C° 1 mm 0 mps 650 mmHg 90%
    03:00 +17°C° 0.2 mm 0 mps 650 mmHg 89%
    04:00 +17°C° 0.2 mm 0 mps 650 mmHg 89%
    05:00 +16°C° 0.2 mm 0 mps 650 mmHg 88%
    06:00 +18°C° 0 mm 0 mps 651 mmHg 84%
    07:00 +19°C° 0 mm 0 mps 652 mmHg 79%
    08:00 +23°C° 0 mm 1 mps 652 mmHg 75%
    09:00 +24°C° 0.6 mm 1 mps 652 mmHg 70%
    10:00 +25°C° 0.6 mm 1 mps 652 mmHg 66%
    11:00 +26°C° 0.6 mm 2 mps 652 mmHg 62%
    12:00 +27°C° 0.8 mm 2 mps 652 mmHg 61%
    13:00 +27°C° 0.8 mm 2 mps 651 mmHg 60%
    14:00 +27°C° 0.8 mm 2 mps 650 mmHg 59%
    15:00 +26°C° 0.6 mm 2 mps 649 mmHg 66%
    16:00 +24°C° 0.6 mm 2 mps 648 mmHg 73%
    17:00 +23°C° 0.6 mm 2 mps 648 mmHg 80%
    18:00 +21°C° 0.2 mm 2 mps 648 mmHg 81%
    19:00 +21°C° 0.2 mm 2 mps 649 mmHg 82%
    20:00 +21°C° 0.2 mm 1 mps 649 mmHg 83%
    21:00 +21°C° 0.4 mm 1 mps 650 mmHg 83%
    22:00 +21°C° 0.4 mm 1 mps 650 mmHg 84%
    23:00 +21°C° 0.4 mm 1 mps 650 mmHg 84%

    Pasado mañana, 10 Diciembre, Martes

    Tiempo Temperatura Precipitaciones Viento Presión Humedad
    00:00 +20°C° 0.2 mm 1 mps 650 mmHg 85%
    01:00 +20°C° 0.2 mm 1 mps 650 mmHg 85%
    02:00 +20°C° 0.2 mm 1 mps 649 mmHg 85%
    03:00 +20°C° 0 mm 1 mps 649 mmHg 85%
    04:00 +19°C° 0 mm 1 mps 650 mmHg 84%
    05:00 +19°C° 0 mm 1 mps 650 mmHg 84%
    06:00 +21°C° 0 mm 1 mps 650 mmHg 79%
    07:00 +23°C° 0 mm 1 mps 651 mmHg 73%
    08:00 +23°C° 0 mm 0 mps 652 mmHg 68%
    09:00 +26°C° 0.1 mm 1 mps 652 mmHg 62%
    10:00 +28°C° 0.1 mm 2 mps 652 mmHg 56%
    11:00 +29°C° 0.1 mm 2 mps 653 mmHg 49%
    12:00 +30°C° 0.3 mm 2 mps 652 mmHg 48%
    13:00 +30°C° 0.3 mm 2 mps 652 mmHg 47%
    14:00 +31°C° 0.3 mm 2 mps 651 mmHg 46%
    15:00 +30°C° 0.4 mm 2 mps 651 mmHg 47%
    16:00 +29°C° 0.4 mm 2 mps 650 mmHg 49%
    17:00 +28°C° 0.4 mm 1 mps 649 mmHg 51%
    18:00 +27°C° 0.9 mm 1 mps 649 mmHg 60%
    19:00 +25°C° 0.9 mm 1 mps 649 mmHg 69%
    20:00 +21°C° 0.9 mm 0 mps 649 mmHg 78%
    21:00 +22°C° 0.9 mm 1 mps 650 mmHg 80%
    22:00 +22°C° 0.9 mm 1 mps 650 mmHg 82%
    23:00 +21°C° 0.9 mm 1 mps 650 mmHg 83%

    11 Diciembre, Miércoles

    Tiempo Temperatura Precipitaciones Viento Presión Humedad
    00:00 +21°C° 0 mm 1 mps 650 mmHg 82%
    01:00 +21°C° 0 mm 1 mps 649 mmHg 81%
    02:00 +20°C° 0 mm 1 mps 649 mmHg 80%
    03:00 +20°C° 0 mm 1 mps 649 mmHg 80%
    04:00 +20°C° 0 mm 1 mps 648 mmHg 80%
    05:00 +20°C° 0 mm 1 mps 648 mmHg 79%
    06:00 +20°C° 0 mm 0 mps 649 mmHg 73%
    07:00 +22°C° 0 mm 0 mps 650 mmHg 68%
    08:00 +24°C° 0 mm 0 mps 650 mmHg 62%
    09:00 +27°C° 0 mm 1 mps 650 mmHg 57%
    10:00 +29°C° 0 mm 2 mps 650 mmHg 51%
    11:00 +31°C° 0 mm 3 mps 650 mmHg 46%
    12:00 +31°C° 0 mm 3 mps 650 mmHg 44%
    13:00 +33°C° 0 mm 3 mps 649 mmHg 42%
    14:00 +34°C° 0 mm 3 mps 648 mmHg 41%
    15:00 +34°C° 0 mm 3 mps 647 mmHg 41%
    16:00 +33°C° 0 mm 3 mps 647 mmHg 42%
    17:00 +33°C° 0 mm 3 mps 646 mmHg 42%
    18:00 +30°C° 0 mm 2 mps 646 mmHg 49%
    19:00 +28°C° 0 mm 1 mps 646 mmHg 55%
    20:00 +26°C° 0 mm 1 mps 646 mmHg 61%
    21:00 +25°C° 0 mm 1 mps 647 mmHg 62%
    22:00 +25°C° 0 mm 1 mps 647 mmHg 63%
    23:00 +24°C° 0 mm 1 mps 648 mmHg 64%

    12 Diciembre, Jueves

    Tiempo Temperatura Precipitaciones Viento Presión Humedad
    00:00 +24°C° 0 mm 1 mps 647 mmHg 65%
    01:00 +24°C° 0 mm 1 mps 647 mmHg 65%
    02:00 +23°C° 0 mm 1 mps 647 mmHg 65%
    03:00 +23°C° 0.1 mm 1 mps 647 mmHg 66%
    04:00 +23°C° 0.1 mm 1 mps 647 mmHg 67%
    05:00 +23°C° 0.1 mm 1 mps 648 mmHg 69%
    06:00 +24°C° 0.1 mm 1 mps 649 mmHg 65%
    07:00 +26°C° 0.1 mm 1 mps 650 mmHg 61%
    08:00 +27°C° 0.1 mm 1 mps 651 mmHg 58%
    09:00 +28°C° 0.5 mm 2 mps 651 mmHg 57%
    10:00 +29°C° 0.5 mm 3 mps 652 mmHg 56%
    11:00 +29°C° 0.5 mm 4 mps 652 mmHg 55%
    12:00 +29°C° 0.6 mm 4 mps 651 mmHg 56%
    13:00 +29°C° 0.6 mm 4 mps 650 mmHg 57%
    14:00 +29°C° 0.6 mm 3 mps 650 mmHg 58%
    15:00 +28°C° 0.2 mm 3 mps 649 mmHg 61%
    16:00 +27°C° 0.2 mm 3 mps 649 mmHg 65%
    17:00 +26°C° 0.2 mm 2 mps 648 mmHg 68%
    18:00 +25°C° 0.2 mm 2 mps 649 mmHg 71%
    19:00 +24°C° 0.2 mm 2 mps 649 mmHg 73%
    20:00 +23°C° 0.2 mm 2 mps 650 mmHg 76%
    21:00 +23°C° 0.6 mm 2 mps 650 mmHg 77%
    22:00 +21°C° 0.6 mm 2 mps 651 mmHg 79%
    23:00 +21°C° 0.6 mm 2 mps 651 mmHg 80%

    13 Diciembre, Viernes

    Tiempo Temperatura Precipitaciones Viento Presión Humedad
    00:00 +21°C° 0.1 mm 1 mps 651 mmHg 80%
    01:00 +21°C° 0.1 mm 1 mps 651 mmHg 79%
    02:00 +21°C° 0.1 mm 1 mps 651 mmHg 78%
    03:00 +21°C° 0 mm 1 mps 651 mmHg 75%
    04:00 +19°C° 0 mm 2 mps 651 mmHg 71%
    05:00 +18°C° 0 mm 2 mps 650 mmHg 68%
    06:00 +19°C° 0 mm 2 mps 651 mmHg 61%
    07:00 +22°C° 0 mm 1 mps 652 mmHg 55%
    08:00 +23°C° 0 mm 1 mps 652 mmHg 48%
    09:00 +24°C° 0 mm 1 mps 653 mmHg 46%
    10:00 +25°C° 0 mm 2 mps 653 mmHg 43%
    11:00 +27°C° 0 mm 2 mps 653 mmHg 41%
    12:00 +27°C° 0.1 mm 3 mps 652 mmHg 42%
    13:00 +27°C° 0.1 mm 3 mps 651 mmHg 44%
    14:00 +27°C° 0.1 mm 3 mps 651 mmHg 46%
    15:00 +27°C° 0 mm 2 mps 650 mmHg 49%
    16:00 +26°C° 0 mm 2 mps 649 mmHg 53%
    17:00 +25°C° 0 mm 1 mps 648 mmHg 57%
    18:00 +24°C° 0 mm 1 mps 649 mmHg 60%
    19:00 +24°C° 0 mm 1 mps 649 mmHg 63%
    20:00 +21°C° 0 mm 0 mps 650 mmHg 66%
    21:00 +21°C° 0 mm 0 mps 650 mmHg 66%
    22:00 +21°C° 0 mm 0 mps 651 mmHg 67%
    23:00 +22°C° 0 mm 1 mps 651 mmHg 67%
    Mostrar más